Le nostre stazioni meteo in Italia

Pubblicità
Il mio iltempo24.it
Catania/Fontanarossa, Italia (16460): Temperatura & dewpoint: 03.04.2020 18:00:00 - 09.04.2020 18:00:00 (CEST)Catania/Fontanarossa, Italia (16460): velocità del vento: 03.04.2020 18:00:00 - 09.04.2020 18:00:00 (CEST)Catania/Fontanarossa, Italia (16460): direzione del vento: 03.04.2020 18:00:00 - 09.04.2020 18:00:00 (CEST)Catania/Fontanarossa, Italia (16460): reduced air pressure: 03.04.2020 18:00:00 - 09.04.2020 18:00:00 (CEST)Catania/Fontanarossa, Italia (16460): visibility: 03.04.2020 18:00:00 - 09.04.2020 18:00:00 (CEST)Catania/Fontanarossa, Italia (16460): precipitazioni: 03.04.2020 18:00:00 - 09.04.2020 18:00:00 (CEST)
Data & Tempo tt [°C] td [°C] ff [km/h] ff [kn] dd ppp [hPa] vv [km] rr [mm]
09.04.2020 18:00:00 18,0 6,0 11 6 ESE - 10 -
09.04.2020 17:00:00 17,8 9,6 15 8 E 1021,0 10 0,0
09.04.2020 16:00:00 19,0 4,0 15 8 E - 10 -
09.04.2020 15:00:00 19,0 2,0 13 7 E - 10 -
09.04.2020 14:00:00 18,2 4,4 13 7 E 1021,9 10 -
09.04.2020 13:00:00 18,0 8,0 13 7 E - 10 -
09.04.2020 12:00:00 17,0 7,0 9 5 E - 10 -
09.04.2020 11:00:00 17,1 5,7 9 5 E 1023,2 10 0,0
09.04.2020 10:00:00 15,0 7,0 8 4 SO - 10 -
09.04.2020 09:00:00 12,0 7,0 9 5 SO - 10 -
09.04.2020 08:00:00 7,8 5,2 9 5 OSO 1022,4 10 -
09.04.2020 07:00:00 5,0 3,0 8 4 SO - 10 -
09.04.2020 06:00:00 5,0 4,0 8 4 O - 10 -
09.04.2020 05:00:00 6,0 4,5 8 4 O 1021,9 10 0,0
09.04.2020 04:00:00 7,0 5,0 8 4 SO - 10 -
09.04.2020 03:00:00 7,0 6,0 13 7 SO - 10 -
09.04.2020 02:00:00 7,9 6,0 11 6 OSO 1022,9 10 -
09.04.2020 01:00:00 9,0 6,0 2 1 - - 10 -
09.04.2020 00:00:00 10,0 6,0 4 2 - - 10 -
08.04.2020 23:00:00 10,2 6,6 8 4 OSO 1023,7 10 0,0
08.04.2020 22:00:00 13,0 8,0 5 3 ONO - 10 -
08.04.2020 21:00:00 14,0 7,0 2 1 - - 10 -
08.04.2020 20:00:00 15,0 7,6 8 4 E 1022,5 10 -
08.04.2020 19:00:00 16,0 8,0 11 6 ESE - 10 -
08.04.2020 18:00:00 17,0 9,0 13 7 E - 10 -
08.04.2020 17:00:00 18,0 7,0 16 9 ESE - 10 -
08.04.2020 16:00:00 19,0 3,0 18 10 ESE - 10 -
08.04.2020 15:00:00 19,0 3,0 21 11 E - 10 -
08.04.2020 14:00:00 19,9 2,5 18 10 SE 1022,9 10 -
08.04.2020 13:00:00 20,0 0,0 8 4 - - 10 -
08.04.2020 12:00:00 20,0 5,0 11 6 OSO - 10 -
08.04.2020 11:00:00 17,9 6,9 15 8 OSO 1024,6 10 0,0
08.04.2020 10:00:00 15,0 8,0 18 10 OSO - 10 -
08.04.2020 09:00:00 12,0 8,0 11 6 OSO - 10 -
08.04.2020 08:00:00 8,0 6,5 13 7 OSO 1025,0 10 -
08.04.2020 07:00:00 6,0 5,0 11 6 OSO - 10 -
08.04.2020 06:00:00 6,0 5,0 11 6 O - 10 -
08.04.2020 05:00:00 5,7 4,9 8 4 SO 1025,0 10 0,0
08.04.2020 04:00:00 6,0 5,0 5 3 OSO - 10 -
08.04.2020 03:00:00 7,0 5,0 8 4 SO - 10 -
08.04.2020 02:00:00 7,0 5,3 8 4 O 1025,8 10 -
08.04.2020 01:00:00 8,0 6,0 4 2 NNO - 10 -
08.04.2020 00:00:00 9,0 5,0 4 2 NNO - 10 -
07.04.2020 23:00:00 10,6 7,3 4 2 NNO 1026,2 10 0,0
07.04.2020 22:00:00 12,0 8,0 2 1 - - 10 -
07.04.2020 21:00:00 14,0 8,0 2 1 - - 10 -
07.04.2020 20:00:00 15,0 6,9 4 2 E 1025,3 10 -
07.04.2020 19:00:00 15,0 6,0 11 6 ENE - 10 -
07.04.2020 18:00:00 16,0 12,0 9 5 E - 10 -
07.04.2020 17:00:00 15,7 7,9 13 7 E 1024,8 10 0,0
07.04.2020 16:00:00 16,0 11,0 13 7 E - 10 -
07.04.2020 15:00:00 16,0 10,0 11 6 E - 10 -
07.04.2020 14:00:00 16,6 9,3 11 6 ESE 1024,9 10 -
07.04.2020 13:00:00 18,0 8,0 13 7 ESE - 10 -
07.04.2020 12:00:00 19,0 10,0 15 8 E - 10 -
07.04.2020 11:00:00 18,1 9,5 5 3 OSO 1024,9 10 0,0
07.04.2020 10:00:00 17,0 11,0 9 5 OSO - 10 -
07.04.2020 09:00:00 14,0 12,0 9 5 SO - 10 -
07.04.2020 08:00:00 12,5 11,5 5 3 O 1024,4 10 -
07.04.2020 07:00:00 12,0 11,0 8 4 O - 10 -
07.04.2020 06:00:00 12,0 11,0 5 3 O - 10 -
07.04.2020 05:00:00 11,9 11,1 8 4 SO 1024,0 10 0,0
07.04.2020 04:00:00 12,0 11,0 5 3 OSO - 10 -
07.04.2020 03:00:00 12,0 11,0 5 3 OSO - 10 -
07.04.2020 02:00:00 12,0 10,6 5 3 SSO 1024,7 10 -
07.04.2020 01:00:00 12,0 10,0 8 4 O - 10 -
07.04.2020 00:00:00 13,0 11,0 4 2 NO - 10 -
06.04.2020 23:00:00 13,2 11,3 4 2 ONO 1024,6 10 0,0
06.04.2020 22:00:00 14,0 12,0 5 3 E - 10 -
06.04.2020 21:00:00 15,0 11,0 8 4 E - 10 -
06.04.2020 20:00:00 14,7 11,7 9 5 ENE 1023,3 10 -
06.04.2020 19:00:00 15,0 11,0 9 5 ENE - 10 -
06.04.2020 18:00:00 15,0 11,0 13 7 ENE - 10 -
06.04.2020 17:00:00 15,3 10,8 13 7 ENE 1023,0 10 0,0
06.04.2020 16:00:00 16,0 11,0 9 5 E - 10 -
06.04.2020 15:00:00 16,0 11,0 13 7 E - 10 -
06.04.2020 14:00:00 15,8 10,9 15 8 E 1022,7 10 -
06.04.2020 13:00:00 17,0 11,0 15 8 E - 10 -
06.04.2020 12:00:00 17,0 9,0 8 4 ENE - 7 -
06.04.2020 11:00:00 16,3 10,3 4 2 - 1022,0 10 0,0
06.04.2020 10:00:00 14,0 11,0 9 5 OSO - 10 -
06.04.2020 09:00:00 12,0 10,0 8 4 OSO - 9 -
06.04.2020 08:00:00 10,8 8,9 9 5 OSO 1020,2 8 -
06.04.2020 07:00:00 10,0 9,0 8 4 OSO - 8 -
06.04.2020 06:00:00 11,0 9,0 8 4 OSO - 10 -
06.04.2020 05:00:00 10,6 8,6 5 3 SO 1018,8 10 0,0
06.04.2020 04:00:00 11,0 8,0 8 4 SSO - 10 -
06.04.2020 03:00:00 11,0 8,0 9 5 OSO - 10 -
06.04.2020 02:00:00 11,6 7,6 9 5 OSO 1018,5 10 -
06.04.2020 01:00:00 12,0 7,0 9 5 O - 10 -
06.04.2020 00:00:00 12,0 7,0 11 6 O - 10 -
05.04.2020 23:00:00 12,4 8,1 11 6 O 1018,2 10 0,0
05.04.2020 22:00:00 12,0 8,0 9 5 O - 10 -
05.04.2020 21:00:00 14,0 9,0 11 6 SSO - 10 -
05.04.2020 20:00:00 15,3 8,5 8 4 S 1016,3 10 -
05.04.2020 19:00:00 17,0 9,0 11 6 SE - 10 -
05.04.2020 18:00:00 18,0 9,0 16 9 ESE - 10 -
05.04.2020 17:00:00 17,9 8,1 18 10 ESE 1014,9 10 0,0
05.04.2020 16:00:00 19,0 8,0 16 9 SE - 10 -
05.04.2020 15:00:00 18,0 8,0 16 9 ESE - 10 -
05.04.2020 14:00:00 18,6 7,3 21 11 E 1015,0 10 -
05.04.2020 13:00:00 18,0 6,0 18 10 E - 10 -
05.04.2020 12:00:00 18,0 6,0 21 11 ESE - 10 -
05.04.2020 11:00:00 17,8 5,6 18 10 E 1015,4 10 0,0
05.04.2020 10:00:00 16,0 6,0 5 3 NNE - 10 -
05.04.2020 09:00:00 12,0 7,0 5 3 O - 10 -
05.04.2020 08:00:00 9,6 6,7 8 4 OSO 1014,9 10 -
05.04.2020 07:00:00 6,0 4,0 5 3 SO - 10 -
05.04.2020 06:00:00 6,0 4,0 5 3 OSO - 10 -
05.04.2020 05:00:00 5,8 3,9 5 3 OSO 1014,3 10 0,0
05.04.2020 04:00:00 7,0 5,0 5 3 NNO - 10 -
05.04.2020 03:00:00 8,0 5,0 4 2 - - 10 -
05.04.2020 02:00:00 8,6 5,4 5 3 NO 1014,8 10 -
05.04.2020 01:00:00 10,0 6,0 5 3 S - 10 -
05.04.2020 00:00:00 9,0 6,0 15 8 SO - 10 -
04.04.2020 23:00:00 9,6 6,3 2 1 - 1014,7 10 0,0
04.04.2020 22:00:00 11,0 7,0 5 3 SO - 10 -
04.04.2020 21:00:00 12,0 8,0 15 8 O - 10 -
04.04.2020 20:00:00 15,0 7,9 2 1 - 1013,0 10 -
04.04.2020 19:00:00 16,0 7,0 18 10 NE - 10 -
04.04.2020 18:00:00 16,0 8,0 24 13 ENE - 10 -
04.04.2020 17:00:00 17,1 7,8 22 12 ENE 1011,4 10 0,0
04.04.2020 16:00:00 18,0 10,0 21 11 E - 10 -
04.04.2020 15:00:00 18,0 8,0 21 11 SE - 10 -
04.04.2020 14:00:00 18,3 7,7 21 11 SE 1010,8 10 -
04.04.2020 13:00:00 18,0 9,0 18 10 SE - 10 -
04.04.2020 12:00:00 17,0 10,0 11 6 SSE - 10 -
04.04.2020 11:00:00 15,5 10,1 5 3 S 1011,4 10 0,0
04.04.2020 10:00:00 15,0 12,0 5 3 O - 10 -
04.04.2020 09:00:00 13,0 12,0 11 6 O - 10 -
04.04.2020 08:00:00 12,0 11,4 8 4 O 1010,3 10 -
04.04.2020 07:00:00 12,0 11,0 5 3 ONO - 10 -
04.04.2020 06:00:00 11,0 11,0 11 6 OSO - 8 -
04.04.2020 05:00:00 11,4 10,8 8 4 OSO 1009,0 8 0,0
04.04.2020 04:00:00 12,0 11,0 5 3 O - 8 -
04.04.2020 03:00:00 12,0 11,0 9 5 O - 7 -
04.04.2020 02:00:00 12,5 11,6 15 8 E 1009,4 7 -
04.04.2020 01:00:00 13,0 12,0 13 7 E - 5 -
04.04.2020 00:00:00 13,0 11,0 15 8 E - 8 -
03.04.2020 23:00:00 12,6 11,0 11 6 ESE 1009,5 10 0,0
03.04.2020 22:00:00 13,0 10,0 15 8 E - 10 -
03.04.2020 21:00:00 13,0 10,0 16 9 E - 10 -
03.04.2020 20:00:00 13,1 10,1 11 6 E 1008,3 10 -
03.04.2020 19:00:00 13,0 10,0 16 9 E - 10 -
03.04.2020 18:00:00 14,0 9,0 16 9 E - 10 -

tt = Temperatura
td = dewpoint
ff = velocità del vento
dd = direzione del vento
ppp = reduced air pressure
vv = visibility
rr = precipitazioni

Stazioni seguenti

WeatherPro
AMSI
MeteoEarth